Weather History for Gustavus, AK

Change the Weather History Date:

Tuesday, December 4, 2012

  Actual Average Record
Temperature  
Mean Temperature 20 °F -  
Max Temperature 24 °F 35 °F 48 °F (1989)
Min Temperature 15 °F 24 °F -4 °F (2007)
Degree Days  
Heating Degree Days 46    
Moisture  
Dew Point 16 °F    
Average Humidity 81    
Maximum Humidity 86    
Minimum Humidity 73    
Precipitation  
Precipitation 0.00 in - - ()
Sea Level Pressure  
Sea Level Pressure 29.30 in    
Wind  
Wind Speed 1 mph (NNW)    
Max Wind Speed 7 mph    
Max Gust Speed -    
Visibility 9 miles    
Events      
Averages and records for this station are not official NWS values.
T = Trace of Precipitation, MM = Missing Value Source: NWS Daily Summary

Daily Weather History Graph

Daily Weather History Graph

Search for Another Location

Airport:

Trip Planner

Search our weather history database for the weather conditions in past years. The results will help you decide how hot, cold, wet, or windy it might be!

Date:

Astronomy

Dec. 04, 2012 Rise Set
Actual Time 8:32 AM AKST 3:14 PM AKST
Civil Twilight 7:41 AM AKST 4:05 PM AKST
Nautical Twilight 6:48 AM AKST 4:57 PM AKST
Astronomical Twilight 6:00 AM AKST 5:46 PM AKST
Moon 10:08 PM AKST (12/4) 11:37 AM AKST (12/4)
Length of Visible Light 8h 24m
Length of Day
6h 42m
Waning Gibbous, 68% of the Moon is Illuminated
Dec 4
Waning Gibbous
Dec 6
Last Quarter
Dec 12
New
Dec 19
First Quarter
Dec 28
Full

Hourly Weather History & Observations

Time (AKST) Temp. Windchill Dew Point Humidity Pressure Visibility Wind Dir Wind Speed Gust Speed Precip Events Conditions
12:16 AM 19.4 °F - 15.8 °F 86% 29.30 in 10.0 mi Calm Calm - N/A   Overcast
12:36 AM 19.4 °F - 14.0 °F 80% 29.30 in 10.0 mi Calm Calm - N/A   Overcast
12:56 AM 19.4 °F - 14.0 °F 80% 29.29 in 10.0 mi Calm Calm - N/A   Overcast
1:16 AM 19.4 °F - 15.8 °F 86% 29.28 in 7.0 mi Calm Calm - N/A   Overcast
1:36 AM 19.4 °F - 15.8 °F 86% 29.28 in 6.0 mi Calm Calm - N/A   Overcast
1:56 AM 19.4 °F - 15.8 °F 86% 29.28 in 10.0 mi Calm Calm - N/A   Overcast
2:16 AM 19.4 °F - 15.8 °F 86% 29.27 in 10.0 mi Calm Calm - N/A   Overcast
2:36 AM 21.2 °F 13.6 °F 15.8 °F 80% 29.27 in 10.0 mi NNW 5.8 mph - N/A   Overcast
2:56 AM 21.2 °F 16.4 °F 15.8 °F 80% 29.26 in 10.0 mi NNW 3.5 mph - N/A   Overcast
3:16 AM 21.2 °F - 15.8 °F 80% 29.25 in 5.0 mi Calm Calm - N/A   Overcast
3:36 AM 21.2 °F - 17.6 °F 86% 29.25 in 10.0 mi Calm Calm - N/A   Overcast
3:56 AM 21.2 °F - 15.8 °F 80% 29.24 in 10.0 mi Calm Calm - N/A   Overcast
4:16 AM 21.2 °F - 15.8 °F 80% 29.24 in 10.0 mi Calm Calm - N/A   Overcast
4:36 AM 21.2 °F - 15.8 °F 80% 29.23 in 10.0 mi Calm Calm - N/A   Overcast
4:56 AM 21.2 °F - 15.8 °F 80% 29.23 in 10.0 mi Calm Calm - N/A   Overcast
5:16 AM 21.2 °F - 15.8 °F 80% 29.23 in 10.0 mi Calm Calm - N/A   Overcast
5:36 AM 21.2 °F - 15.8 °F 80% 29.23 in 10.0 mi Calm Calm - N/A   Overcast
5:56 AM 21.2 °F - 15.8 °F 80% 29.22 in 10.0 mi Calm Calm - N/A   Overcast
6:16 AM 21.2 °F - 15.8 °F 80% 29.23 in 10.0 mi Calm Calm - N/A   Overcast
6:36 AM 21.2 °F - 15.8 °F 80% 29.22 in 10.0 mi North - - N/A   Overcast
6:56 AM 21.2 °F 14.9 °F 15.8 °F 80% 29.22 in 10.0 mi NNW 4.6 mph - N/A   Overcast
7:16 AM 21.2 °F 16.4 °F 15.8 °F 80% 29.21 in 10.0 mi NNW 3.5 mph - N/A   Overcast
7:36 AM 23.0 °F - 17.6 °F 80% 29.21 in 10.0 mi Calm Calm - N/A   Overcast
7:56 AM 23.0 °F 18.4 °F 17.6 °F 80% 29.21 in 10.0 mi NNW 3.5 mph - N/A   Overcast
8:16 AM 23.0 °F - 17.6 °F 80% 29.21 in 10.0 mi Calm Calm - N/A   Overcast
8:36 AM 21.2 °F - 17.6 °F 86% 29.22 in 10.0 mi Calm Calm - N/A   Overcast
8:56 AM 23.0 °F 15.8 °F 17.6 °F 80% 29.21 in 10.0 mi NNW 5.8 mph - N/A   Overcast
9:16 AM 24.8 °F 19.1 °F 17.6 °F 74% 29.21 in 7.0 mi NNW 4.6 mph - N/A   Overcast
9:36 AM 23.0 °F 17.0 °F 15.8 °F 74% 29.21 in 10.0 mi NW 4.6 mph - N/A   Overcast
9:56 AM 23.0 °F 18.4 °F 15.8 °F 74% 29.22 in 10.0 mi NW 3.5 mph - N/A   Mostly Cloudy
10:16 AM 21.2 °F 14.9 °F 15.8 °F 80% 29.22 in 10.0 mi NNW 4.6 mph - N/A   Overcast
10:36 AM 21.2 °F 14.9 °F 15.8 °F 80% 29.22 in 10.0 mi NNW 4.6 mph - N/A   Overcast
10:56 AM 21.2 °F 14.9 °F 15.8 °F 80% 29.23 in 10.0 mi NNW 4.6 mph - N/A   Scattered Clouds
11:16 AM 21.2 °F - 15.8 °F 80% 29.24 in 10.0 mi Calm Calm - N/A   Clear
11:36 AM 19.4 °F - 14.0 °F 80% 29.24 in 10.0 mi Calm Calm - N/A   Clear
11:56 AM 19.4 °F - 14.0 °F 80% 29.25 in 10.0 mi Calm Calm - N/A   Partly Cloudy
12:16 PM 19.4 °F - 15.8 °F 86% 29.25 in 10.0 mi Calm Calm - N/A   Clear
12:36 PM 19.4 °F - 14.0 °F 80% 29.26 in 10.0 mi Calm Calm - N/A   Clear
12:56 PM 19.4 °F - 12.2 °F 74% 29.27 in 10.0 mi Calm Calm - N/A   Mostly Cloudy
1:16 PM 17.6 °F - 12.2 °F 79% 29.28 in 10.0 mi Calm Calm - N/A   Partly Cloudy
1:36 PM 17.6 °F - 12.2 °F 79% 29.29 in 10.0 mi Calm Calm - N/A   Clear
1:56 PM 17.6 °F 10.7 °F 10.4 °F 73% 29.29 in 10.0 mi NNW 4.6 mph - N/A   Clear
2:16 PM 17.6 °F - 12.2 °F 79% 29.30 in 10.0 mi Calm Calm - N/A   Partly Cloudy
2:36 PM 15.8 °F - 10.4 °F 79% 29.30 in 10.0 mi Calm Calm - N/A   Mostly Cloudy
2:56 PM 17.6 °F 10.7 °F 12.2 °F 79% 29.31 in 10.0 mi NNW 4.6 mph - N/A   Overcast
3:16 PM 19.4 °F 14.3 °F 15.8 °F 86% 29.32 in 10.0 mi NNW 3.5 mph - N/A   Overcast
3:36 PM 19.4 °F - 14.0 °F 80% 29.33 in 10.0 mi Calm Calm - N/A   Overcast
3:56 PM 19.4 °F - 12.2 °F 74% 29.33 in 10.0 mi Calm Calm - N/A   Overcast
4:16 PM 19.4 °F - 14.0 °F 80% 29.34 in 10.0 mi Calm Calm - N/A   Overcast
4:36 PM 19.4 °F - 15.8 °F 86% 29.35 in 10.0 mi Calm Calm - N/A   Overcast
4:56 PM 19.4 °F - 15.8 °F 86% 29.36 in 10.0 mi Calm Calm - N/A   Overcast
5:16 PM 19.4 °F - 14.0 °F 80% 29.36 in 3.0 mi Calm Calm - N/A   Overcast
5:36 PM 19.4 °F - 15.8 °F 86% 29.37 in 10.0 mi Calm Calm - N/A   Overcast
5:56 PM 19.4 °F - 15.8 °F 86% 29.37 in 10.0 mi Calm Calm - N/A   Overcast
6:16 PM 21.2 °F - 15.8 °F 80% 29.38 in 10.0 mi Calm Calm - N/A   Overcast
6:36 PM 19.4 °F - 15.8 °F 86% 29.38 in 7.0 mi Calm Calm - N/A   Overcast
6:56 PM 21.2 °F - 15.8 °F 80% 29.39 in 4.0 mi Calm Calm - N/A   Overcast
7:16 PM 21.2 °F 16.4 °F 15.8 °F 80% 29.39 in 5.0 mi NNW 3.5 mph - N/A   Overcast
7:36 PM 21.2 °F 16.4 °F 15.8 °F 80% 29.39 in 5.0 mi NNW 3.5 mph - N/A   Overcast
7:56 PM 23.0 °F 18.4 °F 17.6 °F 80% 29.41 in 5.0 mi NW 3.5 mph - N/A   Overcast
8:16 PM 23.0 °F 18.4 °F 17.6 °F 80% 29.41 in 10.0 mi NW 3.5 mph - N/A   Overcast
8:36 PM 23.0 °F 18.4 °F 17.6 °F 80% 29.42 in 6.0 mi NNW 3.5 mph - N/A   Overcast
8:56 PM 21.2 °F 13.6 °F 17.6 °F 86% 29.42 in 3.0 mi NNW 5.8 mph - N/A   Overcast
9:16 PM 21.2 °F 14.9 °F 17.6 °F 86% 29.42 in 7.0 mi NNW 4.6 mph - N/A   Overcast
9:36 PM 23.0 °F 15.8 °F 17.6 °F 80% 29.43 in 10.0 mi NNW 5.8 mph - N/A   Overcast
9:56 PM 23.0 °F 15.8 °F 17.6 °F 80% 29.44 in 10.0 mi NW 5.8 mph - N/A   Overcast
10:16 PM 23.0 °F 14.7 °F 17.6 °F 80% 29.44 in 10.0 mi NNW 6.9 mph - N/A   Overcast
10:36 PM 21.2 °F 12.6 °F 15.8 °F 80% 29.45 in 10.0 mi NNW 6.9 mph - N/A   Overcast
10:56 PM 21.2 °F 14.9 °F 15.8 °F 80% 29.46 in 10.0 mi NNW 4.6 mph - N/A   Overcast
11:16 PM 23.0 °F 17.0 °F 15.8 °F 74% 29.46 in 10.0 mi NW 4.6 mph - N/A   Overcast
11:36 PM 23.0 °F 14.7 °F 15.8 °F 74% 29.47 in 10.0 mi NNW 6.9 mph - N/A   Overcast
11:56 PM 23.0 °F 18.4 °F 17.6 °F 80% 29.48 in 3.0 mi NW 3.5 mph - N/A   Overcast